IRIDIUM 33 DEB

Satellite information

Favourite Embed

Satellite Type and Status

DEBRISIN ORBIT

Key statistics

Satellite IRIDIUM 33 DEB at a glance.

Uptime

10212

Days in orbit

Revolutions

≈ 14.3

Per day

Orbit

LEO

Low Earth Orbit

Inclination

86.2

Latest

Satellite identification and parameters

Extended collection of information and parameters for IRIDIUM 33 DEB.

Object identification

Identified? True

Debris? True

Object name: IRIDIUM 33 DEB

International designator: 1997-051DG

Object number (NORAD): 34097

Object ID (CCSDS): 34097

Country: UNITED STATES OF AMERICA (US)

Current information (Y/N): Y

RCS size: SMALL

Orbital parameters

Period: 100.449 minutes

Inclination: 86.1983 deg

SMA: 7158.002 km

Apoapsis: 839.436 km

Periapsis: 720.298 km

RAAN: 47.5967 deg

Eccentricy: 0.00832199

Argument of periapsis: 343.2592 deg

Mean anomaly: 16.5859 deg

Mean motion: 14.33557234 rev/day

Mean motion (dot): 0.00003565 rev/day2

B* drag term: 0.0012334843 1/REarth

Two-line elements (TLE)

Creation date: Aug. 30, 2025, 3:38 a.m.

Reference frame: TEME

Reference center: EARTH

Epoch: Aug. 29, 2025, 10:24 p.m. UTC

TLE line 0: 0 IRIDIUM 33 DEB

TLE line 1: 1 34097U 97051DG 25241.93376947 .00003565 00000-0 12335-2 0 9992

TLE line 2: 2 34097 86.1983 47.5967 0083220 343.2592 16.5859 14.33557234856179

Live tracking on map

Real-time ground track for satellite IRIDIUM 33 DEB.

In-orbit conjunctions

A list of the most updated potential collisions computed for object IRIDIUM 33 DEB.

Target Orbit TCA Probability of collision Miss distance Type
CZ-6A DEB LEO 2025-07-14 00:08:02 0.0005094531 63.0 (m) DEBRIS
CZ-2D R/B LEO 2025-05-31 11:47:37 0.0001332493 58.0 (m) ROCKET BODY
COSMOS 2251 DEB LEO 2025-05-30 19:50:42 0.0001367766 514.0 (m) DEBRIS
NOAA 16 DEB SSO 2025-05-07 07:27:16 0.0001145688 318.0 (m) DEBRIS
CZ-6A DEB LEO 2024-12-30 01:25:04 0.0001587036 144.0 (m) DEBRIS

Associated space launch

Iridium provides global mobile telecommunications services using a constellation of 66 low earth orbit satellites in a 86.4° inclined orbit. Although 77 satellites were originally envisioned for the system and spawned the name based on the 77th element in the periodic table, the system has been scaled back. Motorola's Satellite Communications Group designed and manufactured the Iridium satellites with Lockheed Martin providing the LM-700A spacecraft buses.

IRIDIUM 33 DEB was lifted into orbit during the mission ‘Proton-K/17S40 | Iridium 27 to 33’, on board a Proton-K/17S40 space rocket.

The launch took place on Sept. 14, 1997, 1:36 a.m. from 81/23 (81L).

For more information about the launch, click the button.

Launch to space Proton-K/17S40 | Iridium 27 to 33
Proton-K/17S40 | Iridium 27 to 33

Agency: N/A

Status: Launch Successful

Launch date: Sept. 14, 1997, 1:36 a.m. UTC

Rocket: Proton-K/17S40

Launch pad: 81/23 (81L)

Location: Baikonur Cosmodrome, Republic of Kazakhstan

...

Latest news about this satellite

There are no fresh news available about this satellite. Check back as we update our databases every day.


Newsletter sign-up

Weekly statistics, charts and insights to help you stay on top of the space industry.